[[{"header":{"parameterUnit":"m.s-1","parameterCategory":1,"la1":30.2991,"la2":30.254,"lo1":-89.0895,"lo2":-89.0444,"dy":0.0017,"dx":0.0017,"nx":28,"ny":28,"refTime":"2025-07-04T09:00:00:Z","depth":0,"parameterNumber":2,"parameterNumberName":"U-component_of_WINDS"},"data":[0,0,0,0,0,0,0,0,0,0,0,0,0,0,0,0,0,0,0,0,0,0,0,0,0,0,0,0,0,0,0,0,0,0,0,0,0,0,0,0,0,0,0,0,0,0,0,0,0,0,0,0,0,0,0,0,0,0,1.2445,1.2446,0,1.2504,1.2504,1.2505,1.25,1.2499,1.2498,1.2497,1.2559,1.2561,1.2564,0,0,0,0,0,0,0,0,0,0,0,0,0,1.2332,1.2334,1.2445,1.2446,1.2447,1.2504,1.2504,1.2505,1.25,1.2499,1.2498,1.2497,1.2558,1.2561,1.2564,0,0,0,0,0,0,0,0,0,0,0,0,0,1.2385,1.2335,1.2445,1.2451,1.2452,1.2503,1.2504,1.2505,1.25,1.2499,1.2497,1.2496,1.2557,1.2561,1.2564,1.2614,0,0,1.2576,1.2577,0,0,0,0,0,0,0,0,1.2382,1.2389,1.2449,1.2451,1.2452,1.2493,1.2487,1.2542,1.25,1.2482,1.2497,1.2495,1.2538,1.2543,1.2557,1.2617,1.262,1.2576,1.2578,1.258,1.2581,0,0,0,0,0,0,0,1.2379,1.2387,1.2469,1.245,1.2452,1.2452,1.2458,1.2498,1.2517,1.2483,1.2483,1.249,1.2539,1.2554,1.2559,1.2621,1.2576,1.2579,1.2581,1.2583,1.2728,1.2729,0,0,0,0,0,0,1.2373,1.2384,1.2467,1.247,1.2413,1.2455,1.2461,1.2481,1.2516,1.252,1.2491,1.2489,1.2548,1.2554,1.2561,1.2624,1.258,1.2583,1.2585,1.2726,1.2728,1.273,0,0,0,0,0,0,1.2371,1.2381,1.2464,1.2427,1.2438,1.2458,1.248,1.2483,1.2498,1.2522,1.2526,1.2503,1.2547,1.2556,1.2602,1.2626,1.2585,1.2588,1.2724,1.2727,1.2729,1.2749,0,0,0,0,0,0,1.2368,1.238,1.2398,1.2427,1.244,1.2503,1.2482,1.2485,1.2504,1.2503,1.2534,1.2538,1.2547,1.2596,1.2605,1.263,1.2591,1.2722,1.2726,1.2728,1.2747,1.2752,1.2757,0,0,0,0,0,1.2364,1.2401,1.2399,1.2409,1.2463,1.2505,1.2512,1.252,1.2506,1.2526,1.2542,1.2537,1.2621,1.2601,1.2611,1.2638,1.2721,1.2725,1.2728,1.2744,1.2751,1.2757,0,0,0,0,0,0,1.2375,1.2405,1.2403,1.2451,1.2475,1.2504,1.2528,1.2527,1.2556,1.2553,1.2563,1.257,1.2617,1.2632,1.2608,1.269,1.267,1.2675,1.2678,1.2685,1.269,1.2686,1.2594,0,0,0,0,0,1.2383,1.2413,1.2438,1.2479,1.2491,1.2508,1.2526,1.253,1.2556,1.2566,1.2585,1.2611,1.2644,1.2665,1.2696,1.2748,1.2757,1.2772,1.2777,1.2781,1.2787,1.2818,1.2826,1.2742,1.2742,1.2742,0,0,1.24,1.242,1.2439,1.2482,1.2501,1.2533,1.2516,1.2551,1.2576,1.2572,1.2617,1.2632,1.2661,1.2712,1.2735,1.2725,1.2812,1.2786,1.2789,1.2792,1.2823,1.2831,1.2838,1.2744,1.2744,1.2744,0,0,1.2448,1.2466,1.2502,1.2522,1.2551,1.2562,1.2571,1.26,1.261,1.2655,1.2653,1.2683,1.2738,1.276,1.2779,1.2837,1.2835,1.2847,1.2874,1.2905,1.2911,1.2917,1.2941,1.2948,1.2852,1.2852,1.2852,0,1.2466,1.2514,1.2521,1.2557,1.2577,1.2575,1.2613,1.2632,1.267,1.2684,1.2673,1.2744,1.2763,1.282,1.2834,1.2848,1.286,1.2844,1.291,1.2916,1.2922,1.2944,1.2952,1.2853,1.2853,1.2853,1.2853,0,1.2536,1.2569,1.2595,1.2633,1.2655,1.2692,1.2706,1.2728,1.2731,1.2744,1.2791,1.2815,1.2852,1.2865,1.2868,1.2923,1.2916,1.2907,1.2888,1.2931,1.2952,1.296,1.2855,1.2855,1.2854,1.2854,0,0,1.2593,1.2634,1.2644,1.2662,1.2694,1.2721,1.2758,1.2794,1.2814,1.2841,1.2874,1.2921,1.2914,1.2934,1.294,1.2967,1.3014,1.2955,1.2956,1.2967,1.3079,1.3087,1.3097,1.3013,1.3014,1.3015,1.3078,0,1.2646,1.2711,1.272,1.2779,1.2811,1.281,1.2843,1.2868,1.2881,1.2911,1.2926,1.296,1.2946,1.2959,1.2986,1.3003,1.3037,1.2998,1.3046,1.3047,1.304,1.3108,1.3116,1.3173,1.3086,1.3087,1.3088,0,1.2716,1.2746,1.2808,1.2838,1.2852,1.2881,1.2916,1.2944,1.2973,1.2981,1.3005,1.3007,1.3048,1.3026,1.3083,1.3056,1.3076,1.3088,1.309,1.3097,1.3071,1.3118,1.3192,1.3201,1.3101,1.31,1.3099,0,1.2755,1.2809,1.2854,1.2869,1.2905,1.2926,1.2942,1.2969,1.299,1.3021,1.3036,1.307,1.309,1.3118,1.313,1.3113,1.3188,1.3166,1.3198,1.3198,1.3215,1.3214,1.3295,1.3224,1.3224,1.3224,1.3224,0,1.2814,1.2853,1.2872,1.29,1.2944,1.2953,1.2997,1.3012,1.3037,1.3069,1.307,1.31,1.3114,1.3147,1.3157,1.3205,1.3213,1.3222,1.3225,1.3223,1.3222,1.3238,1.3235,1.3226,1.3226,1.3225,1.3225,0,1.2865,1.2879,1.2928,1.2958,1.2967,1.2998,1.3024,1.3052,1.3065,1.3106,1.3116,1.3137,1.3176,1.3191,1.3239,1.3246,1.3302,1.33,1.3292,1.3293,1.3325,1.3323,1.342,1.3435,1.3352,1.3353,1.3354,0,1.2903,1.2933,1.2966,1.2988,1.3005,1.3039,1.3061,1.3072,1.3096,1.3131,1.3156,1.3194,1.3226,1.3289,1.3309,1.3346,1.3347,1.3379,1.3353,1.3351,1.3351,1.335,1.3354,1.3384,1.3385,1.3386,1.3386,0,1.297,1.2976,1.3007,1.3043,1.3069,1.3097,1.3125,1.3142,1.3158,1.3185,1.3224,1.3249,1.3298,1.3338,1.3376,1.3394,1.3394,1.3394,1.3404,1.3404,1.3399,1.3405,1.3308,1.3392,1.3392,1.3391,1.3391,1.3391,1.3017,1.3045,1.3073,1.3109,1.3131,1.3157,1.3185,1.3202,1.3235,1.3276,1.328,1.3324,1.3354,1.3405,1.3425,1.3461,1.3452,1.3466,1.347,1.3473,1.3477,1.3392,1.3467,1.3467,1.3467,1.3467,1.3467,0,1.3086,1.3105,1.3138,1.3176,1.3205,1.3201,1.3232,1.3257,1.3295,1.3322,1.3354,1.3401,1.344,1.3463,1.3503,1.3527,1.3528,1.3537,1.3536,1.3541,1.3481,1.3469,1.3536,1.3536,1.3536,1.3536,1.3536,1.3535,1.3126,1.3173,1.3182,1.3241,1.3259,1.3301,1.332,1.3345,1.3367,1.3419,1.3451,1.3466,1.3493,1.3535,1.3571,1.3577,1.3593,1.3603,1.3609,1.3552,1.3545,1.3538,1.3528,1.3605,1.3606,1.3667,1.3667,1.3668]},{"header":{"parameterUnit":"m.s-1","parameterCategory":1,"la1":30.2991,"la2":30.254,"lo1":-89.0895,"lo2":-89.0444,"dy":0.0017,"dx":0.0017,"nx":28,"ny":28,"refTime":"2025-07-04T09:00:00:Z","depth":0,"parameterNumber":3,"parameterNumberName":"V-component_of_WINDS"},"data":[0,0,0,0,0,0,0,0,0,0,0,0,0,0,0,0,0,0,0,0,0,0,0,0,0,0,0,0,0,0,0,0,0,0,0,0,0,0,0,0,0,0,0,0,0,0,0,0,0,0,0,0,0,0,0,0,0,0,-1.3156,-1.3156,0,-1.3204,-1.3205,-1.3206,-1.3237,-1.3237,-1.3237,-1.3237,-1.3287,-1.3289,-1.329,0,0,0,0,0,0,0,0,0,0,0,0,0,-1.309,-1.3091,-1.3156,-1.3156,-1.3157,-1.3204,-1.3205,-1.3206,-1.3237,-1.3237,-1.3237,-1.3237,-1.3287,-1.3288,-1.329,0,0,0,0,0,0,0,0,0,0,0,0,0,-1.3126,-1.3091,-1.3156,-1.3178,-1.3181,-1.3204,-1.3205,-1.3206,-1.3237,-1.3237,-1.3237,-1.3237,-1.3287,-1.3288,-1.329,-1.3295,0,0,-1.3295,-1.3296,0,0,0,0,0,0,0,0,-1.3124,-1.3129,-1.3174,-1.3177,-1.3179,-1.3215,-1.32,-1.3236,-1.3237,-1.3215,-1.3237,-1.3238,-1.3263,-1.3267,-1.3275,-1.3298,-1.33,-1.3295,-1.3297,-1.3297,-1.3298,0,0,0,0,0,0,0,-1.3122,-1.3127,-1.3175,-1.3175,-1.3178,-1.3186,-1.3191,-1.3207,-1.3237,-1.3217,-1.322,-1.3225,-1.3265,-1.3273,-1.3277,-1.33,-1.3295,-1.3297,-1.3298,-1.3299,-1.3329,-1.3329,0,0,0,0,0,0,-1.3116,-1.3125,-1.3173,-1.3176,-1.3152,-1.3187,-1.3193,-1.3203,-1.3237,-1.3242,-1.3225,-1.3226,-1.327,-1.3275,-1.3279,-1.3286,-1.3297,-1.3299,-1.33,-1.3329,-1.3329,-1.3329,0,0,0,0,0,0,-1.3114,-1.312,-1.3171,-1.3151,-1.3158,-1.3188,-1.3199,-1.3204,-1.3213,-1.3243,-1.3248,-1.3228,-1.3271,-1.3276,-1.3291,-1.3289,-1.33,-1.3301,-1.333,-1.3329,-1.3329,-1.3302,0,0,0,0,0,0,-1.3112,-1.3119,-1.3121,-1.3151,-1.3159,-1.3183,-1.3199,-1.3205,-1.3216,-1.3218,-1.3247,-1.3252,-1.3271,-1.3288,-1.3292,-1.3291,-1.3303,-1.333,-1.333,-1.3329,-1.3304,-1.3301,-1.3299,0,0,0,0,0,-1.311,-1.3112,-1.3121,-1.3127,-1.3163,-1.3182,-1.3187,-1.3209,-1.3216,-1.3218,-1.3237,-1.3252,-1.3288,-1.3289,-1.3295,-1.3294,-1.333,-1.333,-1.3329,-1.3305,-1.3302,-1.3299,0,0,0,0,0,0,-1.3081,-1.3116,-1.3127,-1.3139,-1.3157,-1.3188,-1.3191,-1.3205,-1.3222,-1.3224,-1.325,-1.3256,-1.3268,-1.3283,-1.3283,-1.3301,-1.3311,-1.3311,-1.329,-1.3288,-1.3286,-1.3282,-1.3304,0,0,0,0,0,-1.3076,-1.3089,-1.3119,-1.3127,-1.3136,-1.3162,-1.3171,-1.3186,-1.3207,-1.3215,-1.3235,-1.3254,-1.327,-1.328,-1.3296,-1.3306,-1.3313,-1.3308,-1.3306,-1.3304,-1.3304,-1.331,-1.3308,-1.3327,-1.3327,-1.3327,0,0,-1.3066,-1.3087,-1.3093,-1.3121,-1.3138,-1.3151,-1.3168,-1.3181,-1.3191,-1.3217,-1.3231,-1.3247,-1.327,-1.3282,-1.3289,-1.3295,-1.33,-1.3303,-1.3302,-1.3303,-1.3309,-1.3307,-1.3306,-1.3327,-1.3327,-1.3327,0,0,-1.3054,-1.3071,-1.3079,-1.3095,-1.3119,-1.3137,-1.3139,-1.3167,-1.3178,-1.3193,-1.3213,-1.3225,-1.3252,-1.3268,-1.3279,-1.3274,-1.3287,-1.3278,-1.3266,-1.3272,-1.327,-1.3269,-1.3266,-1.3265,-1.3278,-1.3278,-1.3278,0,-1.3038,-1.3058,-1.3082,-1.3093,-1.3105,-1.3129,-1.3137,-1.3152,-1.318,-1.3187,-1.3194,-1.3228,-1.3246,-1.3261,-1.326,-1.3269,-1.3272,-1.3275,-1.3269,-1.3268,-1.3267,-1.3264,-1.3263,-1.3277,-1.3277,-1.3277,-1.3277,0,-1.3037,-1.3051,-1.3055,-1.3081,-1.3093,-1.3103,-1.3128,-1.3138,-1.3152,-1.3169,-1.3184,-1.3206,-1.3227,-1.3232,-1.3246,-1.325,-1.3253,-1.3264,-1.3274,-1.3263,-1.3261,-1.3261,-1.3275,-1.3275,-1.3276,-1.3276,0,0,-1.3008,-1.3047,-1.3048,-1.306,-1.3089,-1.31,-1.3111,-1.3132,-1.3139,-1.3158,-1.3168,-1.319,-1.32,-1.3213,-1.323,-1.3235,-1.3228,-1.3245,-1.3246,-1.324,-1.3233,-1.3224,-1.3222,-1.3238,-1.3238,-1.3237,-1.3231,0,-1.3,-1.302,-1.3042,-1.3055,-1.3068,-1.3091,-1.3101,-1.3119,-1.3135,-1.3149,-1.3167,-1.3182,-1.3194,-1.3202,-1.3208,-1.3227,-1.3227,-1.3228,-1.3247,-1.3247,-1.3239,-1.3222,-1.3212,-1.3205,-1.323,-1.323,-1.323,0,-1.2993,-1.301,-1.3024,-1.3052,-1.3058,-1.3066,-1.3086,-1.3099,-1.3121,-1.3132,-1.3147,-1.3164,-1.3177,-1.3187,-1.3205,-1.3205,-1.3214,-1.3225,-1.3225,-1.3227,-1.3237,-1.3222,-1.3203,-1.3201,-1.3229,-1.3229,-1.3229,0,-1.2969,-1.2996,-1.3008,-1.3018,-1.305,-1.3055,-1.3069,-1.3091,-1.3102,-1.312,-1.3127,-1.3147,-1.3157,-1.3172,-1.3194,-1.3199,-1.3209,-1.3221,-1.3219,-1.3218,-1.3219,-1.3218,-1.32,-1.3226,-1.3226,-1.3226,-1.3226,0,-1.2957,-1.2964,-1.2998,-1.3005,-1.3014,-1.3039,-1.3048,-1.3064,-1.3083,-1.3094,-1.3116,-1.3125,-1.3154,-1.3167,-1.3185,-1.3196,-1.3201,-1.3211,-1.3215,-1.3208,-1.3207,-1.3214,-1.3214,-1.3226,-1.3226,-1.3226,-1.3226,0,-1.2931,-1.2954,-1.2968,-1.2998,-1.3005,-1.3011,-1.3036,-1.3044,-1.3062,-1.3075,-1.308,-1.3107,-1.3124,-1.3147,-1.3171,-1.3183,-1.3192,-1.32,-1.3185,-1.3187,-1.3183,-1.3183,-1.3167,-1.3167,-1.3194,-1.3194,-1.3193,0,-1.2921,-1.2928,-1.2958,-1.2966,-1.2979,-1.2993,-1.3004,-1.3029,-1.304,-1.3065,-1.307,-1.3089,-1.3104,-1.313,-1.3152,-1.3171,-1.3178,-1.3172,-1.3181,-1.3174,-1.3177,-1.3176,-1.3177,-1.3169,-1.3169,-1.3168,-1.3168,0,-1.2901,-1.2912,-1.2927,-1.2946,-1.2959,-1.2975,-1.2993,-1.2999,-1.3027,-1.3038,-1.3055,-1.3068,-1.3092,-1.311,-1.3131,-1.3146,-1.3161,-1.3165,-1.3165,-1.3158,-1.3148,-1.3153,-1.3178,-1.3165,-1.3165,-1.3165,-1.3166,-1.3166,-1.2883,-1.2889,-1.2911,-1.2928,-1.2943,-1.2959,-1.2968,-1.2986,-1.3001,-1.3023,-1.3037,-1.3053,-1.3075,-1.3105,-1.3119,-1.3132,-1.3139,-1.3139,-1.3139,-1.3139,-1.3136,-1.3147,-1.3136,-1.3137,-1.3137,-1.3137,-1.3137,0,-1.2863,-1.2879,-1.2893,-1.2917,-1.2929,-1.2943,-1.2963,-1.2973,-1.2987,-1.3006,-1.3021,-1.3041,-1.3058,-1.3082,-1.3101,-1.3107,-1.3115,-1.3111,-1.311,-1.3113,-1.313,-1.3127,-1.3104,-1.3104,-1.3104,-1.3104,-1.3104,-1.3104,-1.2854,-1.2866,-1.288,-1.2899,-1.2915,-1.2931,-1.2941,-1.2956,-1.2971,-1.2992,-1.3006,-1.3022,-1.3043,-1.3063,-1.308,-1.3087,-1.3092,-1.3086,-1.3095,-1.3109,-1.3112,-1.3115,-1.3113,-1.3088,-1.3087,-1.3077,-1.3077,-1.3077]}]]